• In Hungary
  • List of Countries
  • For 7 days
  • Water Temperature
  • Satellite Maps
  • Weather Map
  • News
  • Weather Widgets
  • user-avatar
    Login

    Hourly Weather Borok

    Today, 25 September, Tuesday

    Time Temperature Precipitation Wind Pressure Humidity
    00:00 +14°C° 0 mm 2 mps 753 mmHg 80%
    01:00 +14°C° 0 mm 2 mps 753 mmHg 81%
    02:00 +14°C° 0 mm 2 mps 753 mmHg 81%
    03:00 +13°C° 0 mm 3 mps 753 mmHg 82%
    04:00 +13°C° 0 mm 3 mps 753 mmHg 85%
    05:00 +12°C° 0 mm 3 mps 753 mmHg 89%
    06:00 +12°C° 0 mm 4 mps 753 mmHg 93%
    07:00 +13°C° 0 mm 4 mps 753 mmHg 90%
    08:00 +14°C° 0 mm 4 mps 753 mmHg 87%
    09:00 +14°C° 0 mm 5 mps 753 mmHg 85%
    10:00 +14°C° 0.1 mm 5 mps 753 mmHg 82%
    11:00 +15°C° 0.1 mm 5 mps 753 mmHg 80%
    12:00 +15°C° 0.1 mm 6 mps 753 mmHg 77%
    13:00 +15°C° 0.1 mm 6 mps 753 mmHg 75%
    14:00 +16°C° 0.1 mm 6 mps 753 mmHg 73%
    15:00 +16°C° 0.1 mm 6 mps 752 mmHg 71%
    16:00 +15°C° 0.1 mm 5 mps 752 mmHg 73%
    17:00 +15°C° 0.1 mm 5 mps 752 mmHg 75%
    18:00 +14°C° 0.1 mm 4 mps 752 mmHg 76%
    19:00 +14°C° 0.5 mm 4 mps 752 mmHg 78%
    20:00 +14°C° 0.5 mm 5 mps 752 mmHg 79%
    21:00 +14°C° 0.5 mm 5 mps 751 mmHg 81%
    22:00 +14°C° 0.2 mm 6 mps 751 mmHg 78%
    23:00 +14°C° 0.2 mm 6 mps 751 mmHg 75%

    Tomorrow, 26 September, Wednesday

    Time Temperature Precipitation Wind Pressure Humidity
    00:00 +14°C° 0.2 mm 6 mps 751 mmHg 72%
    01:00 +13°C° 0 mm 6 mps 751 mmHg 72%
    02:00 +13°C° 0 mm 6 mps 752 mmHg 73%
    03:00 +13°C° 0 mm 5 mps 752 mmHg 73%
    04:00 +12°C° 0 mm 5 mps 752 mmHg 78%
    05:00 +11°C° 0 mm 4 mps 753 mmHg 83%
    06:00 +10°C° 0 mm 4 mps 753 mmHg 87%
    07:00 +11°C° 0 mm 4 mps 754 mmHg 82%
    08:00 +10°C° 0 mm 5 mps 755 mmHg 76%
    09:00 +12°C° 0 mm 5 mps 755 mmHg 71%
    10:00 +12°C° 0 mm 5 mps 756 mmHg 68%
    11:00 +13°C° 0 mm 5 mps 756 mmHg 65%
    12:00 +13°C° 0 mm 5 mps 756 mmHg 63%
    13:00 +13°C° 0 mm 5 mps 757 mmHg 64%
    14:00 +13°C° 0 mm 5 mps 757 mmHg 64%
    15:00 +12°C° 0 mm 5 mps 757 mmHg 65%
    16:00 +12°C° 0 mm 4 mps 757 mmHg 67%
    17:00 +11°C° 0 mm 3 mps 758 mmHg 69%
    18:00 +11°C° 0 mm 3 mps 758 mmHg 71%
    19:00 +10°C° 0 mm 3 mps 758 mmHg 73%
    20:00 +10°C° 0 mm 3 mps 758 mmHg 75%
    21:00 +9°C° 0 mm 3 mps 758 mmHg 77%
    22:00 +9°C° 0 mm 3 mps 758 mmHg 80%
    23:00 +9°C° 0 mm 3 mps 758 mmHg 82%

    Day after tomorrow, 27 September, Thursday

    Time Temperature Precipitation Wind Pressure Humidity
    00:00 +7°C° 0 mm 4 mps 758 mmHg 85%
    01:00 +7°C° 0 mm 4 mps 757 mmHg 87%
    02:00 +6°C° 0 mm 4 mps 757 mmHg 90%
    03:00 +6°C° 0 mm 4 mps 757 mmHg 93%
    04:00 +6°C° 0 mm 4 mps 757 mmHg 91%
    05:00 +6°C° 0 mm 5 mps 757 mmHg 88%
    06:00 +6°C° 0 mm 5 mps 757 mmHg 86%
    07:00 +6°C° 0 mm 5 mps 756 mmHg 83%
    08:00 +7°C° 0 mm 6 mps 756 mmHg 80%
    09:00 +7°C° 0 mm 6 mps 756 mmHg 76%
    10:00 +7°C° 0 mm 6 mps 755 mmHg 72%
    11:00 +8°C° 0 mm 7 mps 755 mmHg 67%
    12:00 +8°C° 0 mm 7 mps 754 mmHg 62%
    13:00 +8°C° 0 mm 7 mps 754 mmHg 60%
    14:00 +9°C° 0 mm 8 mps 753 mmHg 57%
    15:00 +9°C° 0 mm 8 mps 753 mmHg 54%
    16:00 +8°C° 0 mm 7 mps 752 mmHg 57%
    17:00 +8°C° 0 mm 6 mps 752 mmHg 60%
    18:00 +7°C° 0 mm 6 mps 751 mmHg 63%
    19:00 +7°C° 0.2 mm 6 mps 751 mmHg 66%
    20:00 +5°C° 0.2 mm 7 mps 750 mmHg 70%
    21:00 +5°C° 0.2 mm 7 mps 750 mmHg 74%
    22:00 +5°C° 0.5 mm 7 mps 749 mmHg 77%
    23:00 +4°C° 0.5 mm 6 mps 749 mmHg 81%

    28 September, Friday

    Time Temperature Precipitation Wind Pressure Humidity
    00:00 +4°C° 0.5 mm 6 mps 748 mmHg 85%
    01:00 +4°C° 0.3 mm 6 mps 748 mmHg 86%
    02:00 +5°C° 0.3 mm 5 mps 748 mmHg 88%
    03:00 +6°C° 0.3 mm 5 mps 748 mmHg 89%
    04:00 +5°C° 0 mm 5 mps 748 mmHg 90%
    05:00 +5°C° 0 mm 5 mps 749 mmHg 90%
    06:00 +5°C° 0 mm 5 mps 749 mmHg 91%
    07:00 +4°C° 0 mm 6 mps 750 mmHg 86%
    08:00 +5°C° 0 mm 6 mps 750 mmHg 82%
    09:00 +6°C° 0 mm 7 mps 751 mmHg 78%
    10:00 +6°C° 0 mm 7 mps 751 mmHg 74%
    11:00 +8°C° 0 mm 7 mps 751 mmHg 71%
    12:00 +8°C° 0 mm 7 mps 752 mmHg 68%
    13:00 +9°C° 0 mm 7 mps 752 mmHg 68%
    14:00 +9°C° 0 mm 7 mps 752 mmHg 67%
    15:00 +9°C° 0 mm 6 mps 752 mmHg 66%
    16:00 +8°C° 0 mm 6 mps 752 mmHg 68%
    17:00 +8°C° 0 mm 5 mps 752 mmHg 70%
    18:00 +7°C° 0 mm 4 mps 752 mmHg 72%
    19:00 +7°C° 0.2 mm 5 mps 752 mmHg 72%
    20:00 +7°C° 0.2 mm 6 mps 751 mmHg 72%
    21:00 +8°C° 0.2 mm 6 mps 750 mmHg 72%
    22:00 +8°C° 0.5 mm 7 mps 749 mmHg 72%
    23:00 +7°C° 0.5 mm 8 mps 748 mmHg 73%

    29 September, Saturday

    Time Temperature Precipitation Wind Pressure Humidity
    00:00 +8°C° 0.5 mm 9 mps 747 mmHg 74%
    01:00 +8°C° 0.6 mm 10 mps 747 mmHg 76%
    02:00 +8°C° 0.6 mm 10 mps 746 mmHg 78%
    03:00 +9°C° 0.6 mm 10 mps 746 mmHg 80%
    04:00 +9°C° 1 mm 10 mps 746 mmHg 81%
    05:00 +10°C° 1 mm 9 mps 747 mmHg 83%
    06:00 +10°C° 1 mm 9 mps 747 mmHg 84%
    07:00 +9°C° 0.1 mm 8 mps 748 mmHg 80%
    08:00 +7°C° 0.1 mm 8 mps 750 mmHg 76%
    09:00 +6°C° 0.1 mm 7 mps 751 mmHg 72%
    10:00 +8°C° 0 mm 7 mps 752 mmHg 67%
    11:00 +8°C° 0 mm 7 mps 753 mmHg 63%
    12:00 +8°C° 0 mm 7 mps 754 mmHg 58%
    13:00 +8°C° 0 mm 6 mps 755 mmHg 57%
    14:00 +8°C° 0 mm 6 mps 756 mmHg 56%
    15:00 +8°C° 0 mm 5 mps 756 mmHg 55%
    16:00 +7°C° 0 mm 4 mps 757 mmHg 60%
    17:00 +7°C° 0 mm 3 mps 757 mmHg 65%
    18:00 +6°C° 0 mm 2 mps 758 mmHg 70%
    19:00 +6°C° 0 mm 1 mps 759 mmHg 71%
    20:00 +6°C° 0 mm 1 mps 759 mmHg 73%
    21:00 +6°C° 0 mm 1 mps 759 mmHg 74%
    22:00 +6°C° 0 mm 1 mps 760 mmHg 75%
    23:00 +5°C° 0 mm 1 mps 760 mmHg 75%

    30 September, Sunday

    Time Temperature Precipitation Wind Pressure Humidity
    00:00 +5°C° 0 mm 1 mps 760 mmHg 75%
    01:00 +4°C° 0 mm 0 mps 760 mmHg 75%
    02:00 +4°C° 0 mm 0 mps 761 mmHg 75%
    03:00 +4°C° 0 mm 0 mps 761 mmHg 75%
    04:00 +4°C° 0 mm 0 mps 761 mmHg 76%
    05:00 +4°C° 0 mm 0 mps 761 mmHg 77%
    06:00 +4°C° 0 mm 0 mps 761 mmHg 77%
    07:00 +6°C° 0 mm 1 mps 761 mmHg 73%
    08:00 +7°C° 0 mm 1 mps 762 mmHg 69%
    09:00 +7°C° 0 mm 2 mps 762 mmHg 65%
    10:00 +7°C° 0 mm 2 mps 762 mmHg 62%
    11:00 +8°C° 0 mm 2 mps 762 mmHg 59%
    12:00 +9°C° 0 mm 3 mps 762 mmHg 56%
    13:00 +8°C° 0 mm 3 mps 762 mmHg 56%
    14:00 +8°C° 0 mm 2 mps 762 mmHg 56%
    15:00 +8°C° 0 mm 2 mps 762 mmHg 56%
    16:00 +7°C° 0 mm 2 mps 762 mmHg 58%
    17:00 +7°C° 0 mm 2 mps 763 mmHg 61%
    18:00 +6°C° 0 mm 2 mps 763 mmHg 64%
    19:00 +5°C° 0 mm 2 mps 763 mmHg 67%
    20:00 +4°C° 0 mm 2 mps 764 mmHg 70%
    21:00 +4°C° 0 mm 2 mps 764 mmHg 73%
    22:00 +3°C° 0 mm 2 mps 764 mmHg 74%
    23:00 +3°C° 0 mm 2 mps 764 mmHg 75%
    Show more